This is the latest recevied weather packets stored in our database for station/object KR4BRU. If no packets are shown the sender has not sent any weather packets the latest 10 day(s).
| Time | Temp. | Humidity | Pressure | Rain* | Wind** | Luminosity | Snow |
|---|---|---|---|---|---|---|---|
| 1777751160 | 23.33° C | 23% | 1011.1 hPa | 0 mm | - | 963 W/m² | - |
| 1777750559 | 21.67° C | 23% | 1011.1 hPa | 0 mm | - | 197 W/m² | - |
| 1777749957 | 22.22° C | 25% | 1011.1 hPa | 0 mm | - | 262 W/m² | - |
| 1777749358 | 22.78° C | 22% | 1011.1 hPa | 0 mm | - | 190 W/m² | - |
| 1777748753 | 23.33° C | 21% | 1011.2 hPa | 0 mm | - | 1064 W/m² | - |
| 1777748150 | 23.33° C | 22% | 1011.4 hPa | 0 mm | - | 1024 W/m² | - |
| 1777747549 | 21.11° C | 23% | 1011.4 hPa | 0 mm | - | 554 W/m² | - |
| 1777746948 | 21.67° C | 24% | 1011.5 hPa | 0 mm | - | 496 W/m² | - |
| 1777746345 | 21.67° C | 22% | 1011.7 hPa | 0 mm | - | 619 W/m² | - |
| 1777745745 | 22.78° C | 23% | 1011.6 hPa | 0 mm | - | 657 W/m² | - |
| 1777745140 | 21.67° C | 25% | 1011.6 hPa | 0 mm | - | 790 W/m² | - |
| 1777744537 | 21.11° C | 28% | 1011.6 hPa | 0 mm | - | 705 W/m² | - |
| 1777743937 | 21.11° C | 28% | 1011.8 hPa | 0 mm | - | 386 W/m² | - |
| 1777743336 | 21.11° C | 25% | 1011.8 hPa | 0 mm | - | 470 W/m² | - |
| 1777742731 | 21.67° C | 25% | 1012 hPa | 0 mm | - | 705 W/m² | - |
| 1777742129 | 20.56° C | 24% | 1011.9 hPa | 0 mm | - | 676 W/m² | - |
| 1777741529 | 21.67° C | 26% | 1012.2 hPa | 0 mm | - | 1011 W/m² | - |
| 1777740928 | 20.56° C | 26% | 1012 hPa | 0 mm | - | 561 W/m² | - |
| 1777740326 | 20° C | 28% | 1012.3 hPa | 0 mm | - | 744 W/m² | - |
| 1777739724 | 19.44° C | 30% | 1012.5 hPa | 0 mm | - | 445 W/m² | - |
| 1777739123 | 19.44° C | 28% | 1012.6 hPa | 0 mm | - | 446 W/m² | - |
| 1777738522 | 18.33° C | 31% | 1012.9 hPa | 0 mm | - | 405 W/m² | - |
| 1777737923 | 18.33° C | 32% | 1012.8 hPa | 0 mm | - | 441 W/m² | - |
| 1777737319 | 18.33° C | 31% | 1012.7 hPa | 0 mm | - | 363 W/m² | - |
| 1777736716 | 17.78° C | 33% | 1012.4 hPa | 0 mm | - | 336 W/m² | - |
* Rain latest hour (hover to see other rain measurements)
** Current wind speed in m/s (hover to see current wind gust speed)